Weather History for KTCC - July, 2013

Change the Weather History Date:

Sunday, July 7, 2013

  Actual Average Record
Temperature  
Mean Temperature 84 °F -  
Max Temperature 96 °F 95 °F 107 °F (1992)
Min Temperature 73 °F 65 °F 57 °F (1908)
Cooling Degree Days 19    
Growing Degree Days 34 (Base 50)    
Moisture  
Dew Point 51 °F    
Average Humidity 31    
Maximum Humidity 55    
Minimum Humidity 21    
Precipitation  
Precipitation 0.00 in - - ()
Sea Level Pressure  
Sea Level Pressure 29.81 in    
Wind  
Wind Speed 14 mph (South)    
Max Wind Speed 22 mph    
Max Gust Speed 31 mph    
Visibility 10 miles    
Events      
Averages and records for this station are not official NWS values.
T = Trace of Precipitation, MM = Missing Value Source: NWS Daily Summary

Daily Weather History Graph

Daily Weather History Graph

Search for Another Location

Airport or City:

Trip Planner

Search our weather history database for the weather conditions in past years. The results will help you decide how hot, cold, wet, or windy it might be!

Date:

Astronomy

Jul. 07, 2013 Rise Set
Actual Time 5:46 AM MDT 8:11 PM MDT
Civil Twilight 5:17 AM MDT 8:41 PM MDT
Nautical Twilight 4:40 AM MDT 9:17 PM MDT
Astronomical Twilight 4:01 AM MDT 9:57 PM MDT
Moon 5:22 AM MDT (7/7) 7:40 PM MDT (7/7)
Length of Visible Light 15h 24m
Length of Day
14h 25m
Waning Crescent, 0% of the Moon is Illuminated
Jul 7
Waning Crescent
Jul 8
New
Jul 15
First Quarter
Jul 22
Full
Jul 29
Last Quarter

Hourly Weather History & Observations

Time (MDT) Temp. Heat Index Dew Point Humidity Pressure Visibility Wind Dir Wind Speed Gust Speed Precip Events Conditions
12:53 AM 82.0 °F - 48.0 °F 30% 29.76 in 10.0 mi South 18.4 mph 26.5 mph N/A   Partly Cloudy
1:53 AM 81.0 °F - 50.0 °F 34% 29.76 in 10.0 mi South 17.3 mph - N/A   Clear
2:53 AM 80.1 °F 80.0 °F 54.0 °F 40% 29.77 in 10.0 mi SSW 10.4 mph - N/A   Mostly Cloudy
3:53 AM 78.1 °F - 57.0 °F 48% 29.78 in 10.0 mi SSW 10.4 mph - N/A   Mostly Cloudy
4:53 AM 77.0 °F - 57.0 °F 50% 29.79 in 10.0 mi SW 8.1 mph - N/A   Clear
5:53 AM 73.9 °F - 57.0 °F 55% 29.81 in 10.0 mi South 6.9 mph - N/A   Clear
6:53 AM 78.1 °F - 54.0 °F 43% 29.82 in 10.0 mi South 8.1 mph - N/A   Scattered Clouds
7:53 AM 79.0 °F - 51.1 °F 38% 29.83 in 10.0 mi SSW 8.1 mph - N/A   Partly Cloudy
8:53 AM 81.0 °F - 48.0 °F 31% 29.86 in 10.0 mi SSW 16.1 mph - N/A   Partly Cloudy
9:53 AM 84.9 °F - 48.0 °F 28% 29.85 in 10.0 mi SSW 15.0 mph - N/A   Partly Cloudy
10:53 AM 89.1 °F - 46.9 °F 23% 29.83 in 10.0 mi SSW 17.3 mph 25.3 mph N/A   Clear
11:53 AM 90.0 °F - 46.9 °F 23% 29.83 in 10.0 mi SW 13.8 mph 24.2 mph N/A   Scattered Clouds
12:53 PM 93.0 °F - 48.0 °F 21% 29.81 in 10.0 mi SSW 6.9 mph 18.4 mph N/A   Clear
1:53 PM 95.0 °F - 48.9 °F 21% 29.78 in 10.0 mi SW 11.5 mph 20.7 mph N/A   Clear
2:53 PM 93.9 °F - 48.0 °F 21% 29.79 in 10.0 mi South 16.1 mph 25.3 mph N/A   Scattered Clouds
3:53 PM 95.0 °F - 51.1 °F 22% 29.77 in 10.0 mi SSE 20.7 mph 29.9 mph N/A   Clear
4:53 PM 95.0 °F - 50.0 °F 22% 29.76 in 10.0 mi SSE 18.4 mph 31.1 mph N/A   Clear
5:53 PM 93.0 °F - 48.9 °F 22% 29.77 in 10.0 mi SSE 21.9 mph 27.6 mph N/A   Clear
6:53 PM 91.0 °F - 50.0 °F 24% 29.78 in 10.0 mi South 15.0 mph - N/A   Clear
7:53 PM 88.0 °F - 50.0 °F 27% 29.79 in 10.0 mi South 13.8 mph - N/A   Clear
8:53 PM 84.9 °F - 50.0 °F 30% 29.81 in 10.0 mi South 12.7 mph - N/A   Clear
9:53 PM 84.0 °F - 50.0 °F 31% 29.84 in 10.0 mi South 12.7 mph - N/A   Clear
10:53 PM 82.0 °F - 50.0 °F 33% 29.86 in 10.0 mi South 8.1 mph - N/A   Clear
11:53 PM 82.0 °F - 50.0 °F 33% 29.88 in 10.0 mi South 10.4 mph - N/A   Clear